Language: 


Des rapports , des résumés tant et plus, au choix de chacun....


Données statistiques de la station
Quotidien Rapport Avril 22, 2017 Unités:  Anglais    Métrique   les deux
« Précédent Jour
Suivant Jour »
Quotidien Hebdomadaire Mensuel Annuel Actuel
  Haut: Bas: Moyen:
Température: 59.2 °F 42.6 °F 51.4 °F
Pt de rosée: 48.2 °F 32 °F 42.8 °F
Humidité: 94 % 43 % 73 %
Vitesse du vent: 14.5 mph 0 mph 4.3 mph
Rafales: 15.2 mph - -
Vent:- - SSW
Pression: 30.4 in 30.3 in -
Précipitation: 0 in    
Historical Graphs
 
 
Données statistiques pour Avril 22, 2017
Heure Température Point de rosée Pression Vent Vitesse du vent Refales Humidité Pluie (taux horaire)
00:01 52.2 °F 46.4 °F 30.3 in West 5.4 mph 6.3 mph 79 % 0 in
00:06 52.2 °F 46.4 °F 30.3 in West 5.6 mph 6.9 mph 79 % 0 in
00:11 52.2 °F 46.4 °F 30.3 in WSW 3.6 mph 6.9 mph 80 % 0 in
00:16 52 °F 46.4 °F 30.3 in West 5.6 mph 6.5 mph 80 % 0 in
00:21 52 °F 46.4 °F 30.3 in WSW 4.9 mph 6.5 mph 80 % 0 in
00:26 52 °F 46.4 °F 30.3 in West 3.8 mph 6.3 mph 81 % 0 in
00:31 52 °F 46.4 °F 30.3 in WSW 3.8 mph 6.3 mph 81 % 0 in
00:36 51.8 °F 46.4 °F 30.3 in West 3.4 mph 4.9 mph 81 % 0 in
00:41 51.8 °F 46.4 °F 30.3 in West 4.3 mph 5.8 mph 81 % 0 in
00:46 51.8 °F 46.4 °F 30.3 in Calm   5.8 mph 82 % 0 in
00:51 51.8 °F 46.4 °F 30.3 in West 5.4 mph 5.6 mph 82 % 0 in
00:56 51.6 °F 46.4 °F 30.3 in West 3.1 mph 6 mph 83 % 0 in
00:59 51.6 °F 46.4 °F 30.3 in WSW 4.3 mph 6 mph 83 % 0 in
01:04 51.6 °F 46.4 °F 30.3 in WSW 2.9 mph 5.4 mph 83 % 0 in
01:09 51.6 °F 48.2 °F 30.3 in West 4.3 mph 5.6 mph 84 % 0 in
01:14 51.6 °F 48.2 °F 30.3 in WSW 4.3 mph 5.6 mph 84 % 0 in
01:15 51.6 °F 48.2 °F 30.3 in WSW 5.8 mph 5.8 mph 84 % 0 in
01:20 51.4 °F 46.4 °F 30.3 in WSW 4.7 mph 6.5 mph 84 % 0 in
01:25 51.4 °F 46.4 °F 30.3 in West 4.9 mph 6.5 mph 84 % 0 in
01:30 51.4 °F 48.2 °F 30.3 in West 3.4 mph 5.8 mph 85 % 0 in
01:35 51.4 °F 48.2 °F 30.3 in West 3.6 mph 5.8 mph 85 % 0 in
01:40 51.4 °F 48.2 °F 30.3 in West 3.8 mph 5.6 mph 85 % 0 in
01:45 51.4 °F 48.2 °F 30.3 in West 3.8 mph 5.6 mph 85 % 0 in
01:50 51.3 °F 48.2 °F 30.3 in West 4.9 mph 5.6 mph 85 % 0 in
01:55 51.3 °F 48.2 °F 30.3 in WSW 5.6 mph 5.6 mph 85 % 0 in
02:00 51.3 °F 48.2 °F 30.3 in West 4.3 mph 5.6 mph 86 % 0 in
02:05 51.3 °F 48.2 °F 30.3 in WSW 5.6 mph 5.6 mph 86 % 0 in
02:10 51.3 °F 48.2 °F 30.3 in West 5.6 mph 5.6 mph 86 % 0 in
02:15 51.1 °F 48.2 °F 30.3 in West 4 mph 5.6 mph 86 % 0 in
02:20 51.1 °F 48.2 °F 30.3 in WSW 4 mph 4.9 mph 86 % 0 in
02:25 51.1 °F 48.2 °F 30.3 in WSW 4.7 mph 4.9 mph 86 % 0 in
02:30 51.1 °F 48.2 °F 30.3 in West 4.9 mph 4.9 mph 86 % 0 in
02:35 51.1 °F 48.2 °F 30.3 in Calm   5.4 mph 86 % 0 in
02:40 50.9 °F 48.2 °F 30.3 in Calm   5.4 mph 87 % 0 in
02:45 50.9 °F 48.2 °F 30.3 in West 3.4 mph 4.5 mph 87 % 0 in
02:46 50.9 °F 48.2 °F 30.3 in WSW 3.1 mph 4.5 mph 87 % 0 in
02:51 50.9 °F 48.2 °F 30.3 in Calm   4.5 mph 87 % 0 in
02:56 50.9 °F 48.2 °F 30.3 in Calm   4 mph 87 % 0 in
03:01 50.7 °F 48.2 °F 30.3 in Calm   4.3 mph 87 % 0 in
03:06 50.7 °F 48.2 °F 30.3 in West 4.3 mph 4.3 mph 87 % 0 in
03:11 50.7 °F 48.2 °F 30.3 in West 4.3 mph 5.4 mph 87 % 0 in
03:16 50.7 °F 48.2 °F 30.3 in Calm   5.4 mph 88 % 0 in
03:21 50.7 °F 48.2 °F 30.3 in Calm   5.4 mph 88 % 0 in
03:26 50.7 °F 48.2 °F 30.3 in Calm   4 mph 88 % 0 in
03:31 50.7 °F 48.2 °F 30.3 in Calm   4 mph 88 % 0 in
03:36 50.7 °F 48.2 °F 30.3 in Calm     88 % 0 in
03:41 50.7 °F 48.2 °F 30.3 in Calm     89 % 0 in
03:46 50.5 °F 48.2 °F 30.3 in Calm     89 % 0 in
03:51 50.5 °F 48.2 °F 30.3 in Calm     89 % 0 in
03:56 50.5 °F 48.2 °F 30.3 in Calm     89 % 0 in
04:01 50.5 °F 48.2 °F 30.3 in Calm     89 % 0 in
04:07 50.5 °F 48.2 °F 30.3 in Calm     89 % 0 in
04:12 50.4 °F 48.2 °F 30.3 in Calm     89 % 0 in
04:17 50.4 °F 48.2 °F 30.3 in Calm     89 % 0 in
04:22 50.4 °F 48.2 °F 30.3 in Calm     89 % 0 in
04:27 50.4 °F 48.2 °F 30.3 in Calm     89 % 0 in
04:32 50.4 °F 48.2 °F 30.3 in WNW 2.9 mph 3.8 mph 90 % 0 in
04:37 50.4 °F 48.2 °F 30.3 in West 3.6 mph 4.9 mph 90 % 0 in
04:42 50.4 °F 48.2 °F 30.3 in West 3.1 mph 5.6 mph 90 % 0 in
04:47 50.4 °F 48.2 °F 30.3 in West 3.1 mph 5.6 mph 90 % 0 in
04:52 50.4 °F 48.2 °F 30.3 in West 3.1 mph 4.7 mph 90 % 0 in
04:57 50.4 °F 48.2 °F 30.3 in WSW 3.1 mph 4.7 mph 90 % 0 in
05:02 50.4 °F 48.2 °F 30.3 in WNW 3.1 mph 4.3 mph 90 % 0 in
05:07 50.4 °F 48.2 °F 30.3 in West 2.7 mph 6 mph 90 % 0 in
05:12 50.4 °F 48.2 °F 30.3 in West 1.6 mph 6 mph 89 % 0 in
05:17 50.4 °F 48.2 °F 30.3 in West 3.4 mph 5.4 mph 89 % 0 in
05:22 50.4 °F 48.2 °F 30.3 in Calm   4 mph 89 % 0 in
05:27 50.4 °F 48.2 °F 30.3 in West 2.2 mph 3.8 mph 89 % 0 in
05:32 50.4 °F 48.2 °F 30.3 in West 3.6 mph 4.3 mph 89 % 0 in
05:37 50.4 °F 48.2 °F 30.3 in WNW 3.1 mph 4.3 mph 89 % 0 in
05:42 50.5 °F 48.2 °F 30.3 in Calm   3.8 mph 88 % 0 in
05:47 50.4 °F 48.2 °F 30.3 in West 2.9 mph 3.8 mph 88 % 0 in
05:52 50.4 °F 48.2 °F 30.3 in WSW 3.8 mph 4.3 mph 88 % 0 in
05:57 50.4 °F 48.2 °F 30.3 in West 3.1 mph 4.3 mph 88 % 0 in
06:02 50.4 °F 48.2 °F 30.3 in West 3.8 mph 4.3 mph 87 % 0 in
06:07 50.4 °F 48.2 °F 30.3 in West 3.1 mph 4.3 mph 87 % 0 in
06:13 50.4 °F 48.2 °F 30.3 in West 2.9 mph 4.3 mph 87 % 0 in
06:18 50.4 °F 48.2 °F 30.3 in West 3.1 mph 4.3 mph 87 % 0 in
06:23 50.4 °F 48.2 °F 30.3 in West 2.7 mph 4.7 mph 87 % 0 in
06:28 50.4 °F 46.4 °F 30.3 in Calm   4.7 mph 86 % 0 in
06:33 50.4 °F 46.4 °F 30.3 in West 3.8 mph 3.8 mph 86 % 0 in
06:38 50.4 °F 46.4 °F 30.3 in West 2.7 mph 3.8 mph 86 % 0 in
06:43 50.4 °F 46.4 °F 30.3 in West 3.6 mph 4.5 mph 86 % 0 in
06:48 50.4 °F 46.4 °F 30.3 in Calm   4.5 mph 86 % 0 in
06:53 50.4 °F 46.4 °F 30.3 in WSW 3.6 mph 3.6 mph 86 % 0 in
06:58 50.5 °F 46.4 °F 30.3 in WNW 1.6 mph 4 mph 86 % 0 in
07:03 50.7 °F 46.4 °F 30.3 in WSW 4 mph 5.6 mph 86 % 0 in
07:08 50.7 °F 46.4 °F 30.3 in West 3.6 mph 5.6 mph 86 % 0 in
07:13 51.1 °F 48.2 °F 30.3 in Calm   5.6 mph 86 % 0 in
07:18 51.3 °F 48.2 °F 30.3 in NW 2.7 mph 5.6 mph 86 % 0 in
07:23 51.4 °F 48.2 °F 30.3 in Calm   4.9 mph 85 % 0 in
07:28 51.6 °F 48.2 °F 30.3 in North 0.9 mph 4.9 mph 85 % 0 in
07:31 51.6 °F 48.2 °F 30.3 in North 3.1 mph 3.6 mph 85 % 0 in
07:36 51.6 °F 48.2 °F 30.3 in West 1.6 mph 4.3 mph 85 % 0 in
07:41 51.6 °F 48.2 °F 30.3 in NW 4.9 mph 4.9 mph 85 % 0 in
07:46 51.8 °F 48.2 °F 30.3 in Calm   5.6 mph 85 % 0 in
07:51 51.8 °F 48.2 °F 30.3 in WNW 4.9 mph 6.3 mph 85 % 0 in
07:56 51.8 °F 48.2 °F 30.3 in NNW 4.3 mph 6.3 mph 85 % 0 in
08:01 51.8 °F 48.2 °F 30.3 in NNE 5.8 mph 6.3 mph 85 % 0 in
08:07 51.8 °F 48.2 °F 30.3 in North 7.6 mph 8.7 mph 86 % 0 in
08:12 51.6 °F 48.2 °F 30.3 in North 6.3 mph 8.7 mph 87 % 0 in
08:17 51.4 °F 48.2 °F 30.3 in NNW 8.1 mph 8.7 mph 87 % 0 in
08:22 51.1 °F 48.2 °F 30.3 in NE 8.7 mph 11 mph 88 % 0 in
08:27 50.4 °F 48.2 °F 30.3 in ENE 8.5 mph 13 mph 89 % 0 in
08:32 49.5 °F 46.4 °F 30.3 in ENE 14.5 mph 15.2 mph 90 % 0 in
08:37 48.9 °F 46.4 °F 30.3 in NNE 10.5 mph 15.2 mph 90 % 0 in
08:41 48.6 °F 46.4 °F 30.3 in NE 8.1 mph 14.5 mph 91 % 0 in
08:46 48.4 °F 46.4 °F 30.3 in NE 9.4 mph 12.5 mph 91 % 0 in
08:51 48 °F 46.4 °F 30.3 in NNE 7.6 mph 11.9 mph 92 % 0 in
08:56 47.8 °F 46.4 °F 30.3 in ENE 7.6 mph 11.9 mph 92 % 0 in
09:01 47.7 °F 46.4 °F 30.3 in NE 4 mph 11.2 mph 92 % 0 in
09:05 47.5 °F 46.4 °F 30.3 in NNE 6 mph 11.2 mph 93 % 0 in
09:10 47.5 °F 46.4 °F 30.3 in ENE 3.8 mph 10.7 mph 93 % 0 in
09:15 47.5 °F 46.4 °F 30.3 in NE 8.1 mph 9.6 mph 93 % 0 in
09:20 47.5 °F 46.4 °F 30.3 in NE 10.3 mph 10.5 mph 93 % 0 in
09:25 47.5 °F 46.4 °F 30.3 in NNE 7.8 mph 11.2 mph 94 % 0 in
09:30 47.7 °F 46.4 °F 30.3 in NE 6.3 mph 11.2 mph 94 % 0 in
09:35 47.5 °F 46.4 °F 30.3 in NE 9.4 mph 11 mph 94 % 0 in
09:40 47.5 °F 46.4 °F 30.3 in NE 8.7 mph 10.5 mph 94 % 0 in
09:45 47.5 °F 46.4 °F 30.3 in NE 4.7 mph 10.5 mph 94 % 0 in
09:50 47.7 °F 46.4 °F 30.3 in ENE 5.4 mph 8.7 mph 94 % 0 in
09:55 47.7 °F 46.4 °F 30.3 in NE 7.4 mph 9.8 mph 94 % 0 in
10:00 47.8 °F 46.4 °F 30.3 in ENE 7.6 mph 9.8 mph 93 % 0 in
10:05 47.7 °F 46.4 °F 30.3 in East 7.8 mph 9.6 mph 91 % 0 in
10:10 47.7 °F 44.6 °F 30.4 in East 5.8 mph 9.6 mph 90 % 0 in
10:15 48 °F 44.6 °F 30.4 in NE 6.5 mph 8.9 mph 88 % 0 in
10:20 48.2 °F 44.6 °F 30.4 in NE 5.4 mph 8.5 mph 86 % 0 in
10:25 48.4 °F 44.6 °F 30.3 in East 6.3 mph 7.8 mph 86 % 0 in
10:30 48.6 °F 44.6 °F 30.3 in NE 4.9 mph 7.6 mph 86 % 0 in
10:35 49.3 °F 46.4 °F 30.3 in East 3.8 mph 6.5 mph 86 % 0 in
10:41 50 °F 46.4 °F 30.3 in East 4.3 mph 6.5 mph 86 % 0 in
10:46 50.4 °F 46.4 °F 30.3 in ENE 3.4 mph 6.5 mph 86 % 0 in
10:51 50.4 °F 46.4 °F 30.3 in ENE 4.3 mph 8.1 mph 85 % 0 in
10:56 50.2 °F 46.4 °F 30.3 in ENE 2 mph 8.1 mph 85 % 0 in
11:01 50.4 °F 46.4 °F 30.3 in NE 2.9 mph 5.8 mph 85 % 0 in
11:02 50.4 °F 46.4 °F 30.3 in Calm   5.4 mph 85 % 0 in
11:07 50.7 °F 46.4 °F 30.3 in ENE 0.9 mph 4.3 mph 85 % 0 in
11:12 51.1 °F 48.2 °F 30.3 in ENE 5.4 mph 6 mph 85 % 0 in
11:17 51.1 °F 46.4 °F 30.3 in NE 3.8 mph 6 mph 84 % 0 in
11:22 51.6 °F 48.2 °F 30.3 in NE 2.5 mph 5.6 mph 84 % 0 in
11:27 51.6 °F 48.2 °F 30.3 in NE 4 mph 7.6 mph 84 % 0 in
11:32 52 °F 46.4 °F 30.3 in NNE 7.2 mph 7.6 mph 83 % 0 in
11:37 52.7 °F 48.2 °F 30.3 in NNE 3.8 mph 7.6 mph 82 % 0 in
11:42 53.1 °F 48.2 °F 30.3 in NNE 8.1 mph 8.1 mph 82 % 0 in
11:47 53.1 °F 48.2 °F 30.3 in ENE 6.7 mph 8.1 mph 80 % 0 in
11:52 52.3 °F 44.6 °F 30.3 in NNE 4.9 mph 7.6 mph 76 % 0 in
11:57 52.2 °F 44.6 °F 30.3 in NE 7.2 mph 7.8 mph 76 % 0 in
12:02 52.3 °F 44.6 °F 30.3 in NE 5.8 mph 7.8 mph 76 % 0 in
12:05 52.2 °F 44.6 °F 30.3 in NNE 6.3 mph 8.5 mph 75 % 0 in
12:10 52.7 °F 46.4 °F 30.3 in NNE 3.4 mph 8.5 mph 75 % 0 in
12:15 52.9 °F 44.6 °F 30.3 in North 6 mph 7.8 mph 74 % 0 in
12:20 53.1 °F 44.6 °F 30.3 in NE 5.4 mph 7.8 mph 74 % 0 in
12:25 53.6 °F 46.4 °F 30.3 in NE 2.2 mph 6 mph 74 % 0 in
12:30 54.1 °F 46.4 °F 30.3 in NE 0.9 mph 5.8 mph 73 % 0 in
12:35 54.3 °F 46.4 °F 30.3 in Calm   6.3 mph 72 % 0 in
12:40 54.1 °F 46.4 °F 30.3 in NE 4 mph 6.3 mph 72 % 0 in
12:42 54.1 °F 46.4 °F 30.3 in East 2.2 mph 6 mph 72 % 0 in
12:47 54.1 °F 46.4 °F 30.3 in ESE 5.4 mph 5.8 mph 71 % 0 in
12:52 55.4 °F 46.4 °F 30.3 in Calm   5.4 mph 71 % 0 in
12:57 56.5 °F 48.2 °F 30.3 in NE 6.5 mph 6.5 mph 70 % 0 in
13:02 55.9 °F 46.4 °F 30.3 in NNE 4 mph 6.5 mph 68 % 0 in
13:08 55.6 °F 46.4 °F 30.3 in North 2.9 mph 6.5 mph 68 % 0 in
13:13 54.5 °F 44.6 °F 30.3 in NNW 3.4 mph 4.9 mph 68 % 0 in
13:14 54.5 °F 44.6 °F 30.3 in NE 2.5 mph 4.9 mph 68 % 0 in
13:19 53.8 °F 42.8 °F 30.3 in NNE 3.4 mph 4.9 mph 67 % 0 in
13:24 53.4 °F 42.8 °F 30.3 in North 3.8 mph 5.4 mph 68 % 0 in
13:29 53.2 °F 42.8 °F 30.3 in North 3.4 mph 5.4 mph 68 % 0 in
13:34 53.4 °F 42.8 °F 30.3 in NE 1.6 mph 5.8 mph 69 % 0 in
13:39 54.9 °F 44.6 °F 30.3 in NE 6 mph 7.8 mph 69 % 0 in
13:44 55.4 °F 44.6 °F 30.3 in North 6 mph 8.5 mph 66 % 0 in
13:50 55 °F 44.6 °F 30.3 in ENE 4.7 mph 8.5 mph 67 % 0 in
13:55 54 °F 42.8 °F 30.3 in NE 3.8 mph 7.8 mph 65 % 0 in
14:00 53.4 °F 42.8 °F 30.3 in North 5.4 mph 7.6 mph 65 % 0 in
14:05 53.2 °F 42.8 °F 30.3 in North 4 mph 7.2 mph 66 % 0 in
14:10 52.9 °F 42.8 °F 30.3 in NNE 5.6 mph 7.2 mph 66 % 0 in
14:15 52.9 °F 42.8 °F 30.3 in NE 6 mph 7.8 mph 66 % 0 in
14:20 53.6 °F 42.8 °F 30.3 in NNE 3.8 mph 7.8 mph 67 % 0 in
14:25 55.2 °F 44.6 °F 30.3 in North 4 mph 8.1 mph 67 % 0 in
14:30 55.2 °F 44.6 °F 30.3 in NW 5.8 mph 8.1 mph 67 % 0 in
14:35 54.9 °F 44.6 °F 30.3 in North 2.9 mph 7.8 mph 65 % 0 in
14:40 54.1 °F 42.8 °F 30.3 in NNE 3.1 mph 6 mph 65 % 0 in
14:45 53.6 °F 42.8 °F 30.3 in North 6.3 mph 7.4 mph 65 % 0 in
14:50 53.4 °F 42.8 °F 30.3 in NNW 4.9 mph 10.7 mph 66 % 0 in
14:55 53.8 °F 42.8 °F 30.3 in NNE 4.3 mph 10.7 mph 66 % 0 in
15:00 54.7 °F 44.6 °F 30.3 in ENE 7.2 mph 10.1 mph 66 % 0 in
15:05 55.8 °F 44.6 °F 30.3 in NE 7.8 mph 10.1 mph 66 % 0 in
15:10 55.4 °F 44.6 °F 30.3 in NE 6.5 mph 9.8 mph 64 % 0 in
15:16 55.2 °F 42.8 °F 30.3 in North 6.5 mph 9.8 mph 63 % 0 in
15:21 55.2 °F 42.8 °F 30.3 in NNE 4.3 mph 11.4 mph 63 % 0 in
15:26 56.1 °F 42.8 °F 30.3 in ENE 4.9 mph 11.4 mph 60 % 0 in
15:31 56.7 °F 42.8 °F 30.3 in North 5.6 mph 9.6 mph 59 % 0 in
15:36 57 °F 42.8 °F 30.3 in NNE 2 mph 11 mph 57 % 0 in
15:41 57.2 °F 41 °F 30.3 in North 5.8 mph 11 mph 54 % 0 in
15:46 56.8 °F 41 °F 30.3 in NNE 4.7 mph 10.7 mph 53 % 0 in
15:51 56.8 °F 41 °F 30.3 in NE 5.6 mph 9.8 mph 53 % 0 in
15:56 57.6 °F 41 °F 30.3 in North 8.7 mph 8.7 mph 53 % 0 in
16:01 56.7 °F 39.2 °F 30.3 in North 7.8 mph 9.8 mph 52 % 0 in
16:06 56.3 °F 39.2 °F 30.3 in North 7.8 mph 11.4 mph 51 % 0 in
16:11 56.1 °F 37.4 °F 30.3 in NE 10.1 mph 13.9 mph 50 % 0 in
16:16 56.3 °F 39.2 °F 30.3 in NE 6.5 mph 13.9 mph 50 % 0 in
16:21 56.5 °F 39.2 °F 30.3 in NE 5.4 mph 11.9 mph 50 % 0 in
16:26 57.2 °F 39.2 °F 30.3 in North 12.5 mph 12.5 mph 49 % 0 in
16:31 57.2 °F 39.2 °F 30.3 in NNE 8.9 mph 12.5 mph 49 % 0 in
16:35 57.6 °F 39.2 °F 30.3 in North 4.3 mph 12.5 mph 49 % 0 in
16:40 57.7 °F 39.2 °F 30.3 in North 10.1 mph 14.1 mph 49 % 0 in
16:45 57.6 °F 37.4 °F 30.3 in North 10.7 mph 14.1 mph 47 % 0 in
16:50 57.7 °F 37.4 °F 30.3 in NNE 9.4 mph 13.2 mph 47 % 0 in
16:55 58.1 °F 39.2 °F 30.3 in NNW 5.4 mph 13.2 mph 47 % 0 in
17:00 57.7 °F 37.4 °F 30.3 in NE 7.6 mph 12.5 mph 46 % 0 in
17:05 57.4 °F 37.4 °F 30.3 in North 2.5 mph 12.5 mph 46 % 0 in
17:10 57.4 °F 37.4 °F 30.3 in North 3.4 mph 11 mph 46 % 0 in
17:15 58.5 °F 37.4 °F 30.3 in North 6.3 mph 8.7 mph 46 % 0 in
17:20 59.2 °F 39.2 °F 30.3 in North 6.9 mph 11.4 mph 46 % 0 in
17:25 58.8 °F 37.4 °F 30.3 in NE 8.1 mph 11.4 mph 45 % 0 in
17:30 57.7 °F 35.6 °F 30.3 in North 8.7 mph 14.8 mph 43 % 0 in
17:35 57.2 °F 35.6 °F 30.3 in North 9.2 mph 14.8 mph 43 % 0 in
17:40 56.3 °F 35.6 °F 30.3 in North 12.3 mph 14.8 mph 44 % 0 in
17:45 55.9 °F 35.6 °F 30.3 in NNE 9.4 mph 13.2 mph 45 % 0 in
17:50 56.1 °F 35.6 °F 30.3 in NNE 9.6 mph 10.7 mph 45 % 0 in
17:55 57 °F 37.4 °F 30.3 in NNE 6 mph 11.2 mph 45 % 0 in
18:00 57.6 °F 37.4 °F 30.3 in NNE 7.8 mph 11.2 mph 44 % 0 in
18:05 56.7 °F 33.8 °F 30.3 in NE 8.5 mph 12.8 mph 43 % 0 in
18:10 57 °F 37.4 °F 30.3 in North 6.3 mph 12.8 mph 45 % 0 in
18:15 56.5 °F 35.6 °F 30.3 in North 4.3 mph 11 mph 45 % 0 in
18:20 57.4 °F 37.4 °F 30.3 in North 4 mph 11 mph 45 % 0 in
18:25 57.2 °F 35.6 °F 30.3 in ENE 12.8 mph 12.8 mph 43 % 0 in
18:30 57.2 °F 35.6 °F 30.3 in North 7.2 mph 14.8 mph 43 % 0 in
18:35 57 °F 35.6 °F 30.3 in NNW 8.5 mph 14.8 mph 44 % 0 in
18:40 57.2 °F 35.6 °F 30.3 in NE 7.2 mph 12.1 mph 43 % 0 in
18:45 56.8 °F 33.8 °F 30.3 in NNE 8.9 mph 10.7 mph 43 % 0 in
18:50 56.8 °F 35.6 °F 30.3 in NNE 7.6 mph 10.5 mph 44 % 0 in
18:56 56.5 °F 33.8 °F 30.3 in NNW 5.4 mph 10.5 mph 43 % 0 in
19:01 56.3 °F 33.8 °F 30.3 in North 7.8 mph 10.5 mph 43 % 0 in
19:06 55.9 °F 35.6 °F 30.3 in NNE 11 mph 11 mph 44 % 0 in
19:11 55.8 °F 35.6 °F 30.3 in NNW 4.7 mph 11 mph 44 % 0 in
19:16 55.6 °F 33.8 °F 30.3 in NNE 8.7 mph 10.1 mph 44 % 0 in
19:21 55.2 °F 35.6 °F 30.3 in North 8.5 mph 10.5 mph 45 % 0 in
19:26 54.9 °F 33.8 °F 30.3 in NNE 3.8 mph 10.5 mph 45 % 0 in
19:31 54.9 °F 33.8 °F 30.3 in NE 3.1 mph 9.6 mph 45 % 0 in
19:36 54.5 °F 35.6 °F 30.3 in North 2.7 mph 8.7 mph 46 % 0 in
19:41 54.1 °F 33.8 °F 30.3 in North 7.8 mph 9.4 mph 45 % 0 in
19:46 53.4 °F 33.8 °F 30.3 in North 4 mph 9.4 mph 46 % 0 in
19:52 52.9 °F 33.8 °F 30.3 in North 4.7 mph 8.7 mph 46 % 0 in
19:57 52.5 °F 32 °F 30.3 in North 7.8 mph 7.8 mph 46 % 0 in
20:02 52 °F 32 °F 30.3 in NNE 4.9 mph 9.2 mph 47 % 0 in
20:07 51.6 °F 32 °F 30.3 in NNE 4.9 mph 10.5 mph 47 % 0 in
20:12 51.4 °F 32 °F 30.3 in NNW 5.6 mph 10.5 mph 48 % 0 in
20:17 51.1 °F 32 °F 30.3 in NE 5.4 mph 9.8 mph 48 % 0 in
20:22 50.7 °F 32 °F 30.3 in North 5.8 mph 9.8 mph 49 % 0 in
20:27 50.4 °F 33.8 °F 30.3 in North 4.7 mph 8.5 mph 50 % 0 in
20:32 50.2 °F 32 °F 30.3 in NE 4.3 mph 8.7 mph 50 % 0 in
20:37 49.6 °F 33.8 °F 30.3 in NE 3.1 mph 8.7 mph 53 % 0 in
20:42 49.3 °F 33.8 °F 30.3 in NE 5.8 mph 7.6 mph 54 % 0 in
20:47 49.1 °F 33.8 °F 30.3 in North 4.3 mph 6.5 mph 54 % 0 in
20:52 48.6 °F 33.8 °F 30.3 in NNE 4.9 mph 6.5 mph 56 % 0 in
20:57 48 °F 33.8 °F 30.3 in North 3.8 mph 6.3 mph 57 % 0 in
21:02 47.8 °F 33.8 °F 30.3 in North 4 mph 6 mph 58 % 0 in
21:07 47.7 °F 33.8 °F 30.3 in NNE 3.1 mph 6 mph 58 % 0 in
21:12 47.5 °F 33.8 °F 30.3 in North 3.6 mph 6.5 mph 59 % 0 in
21:17 47.3 °F 33.8 °F 30.3 in North 3.1 mph 6.5 mph 59 % 0 in
21:22 47.1 °F 33.8 °F 30.3 in North 2 mph 5.6 mph 60 % 0 in
21:27 46.8 °F 33.8 °F 30.3 in Calm   5.6 mph 61 % 0 in
21:32 46.4 °F 33.8 °F 30.3 in Calm   3.1 mph 61 % 0 in
21:37 46.2 °F 33.8 °F 30.3 in Calm   2.5 mph 61 % 0 in
21:42 46.2 °F 33.8 °F 30.3 in Calm   1.1 mph 63 % 0 in
21:47 46 °F 33.8 °F 30.3 in NNW 2.5 mph 3.6 mph 63 % 0 in
21:52 45.7 °F 33.8 °F 30.3 in Calm   3.6 mph 63 % 0 in
21:58 45.3 °F 33.8 °F 30.3 in North 2.2 mph 2.9 mph 64 % 0 in
22:03 44.8 °F 33.8 °F 30.3 in North 0.9 mph 2.9 mph 64 % 0 in
22:08 44.4 °F 33.8 °F 30.3 in Calm   2.7 mph 65 % 0 in
22:13 44.1 °F 33.8 °F 30.3 in Calm   2.7 mph 65 % 0 in
22:18 44.1 °F 33.8 °F 30.3 in North 2 mph 2.9 mph 67 % 0 in
22:24 44.1 °F 33.8 °F 30.3 in NNW 5.8 mph 5.8 mph 68 % 0 in
22:29 44.2 °F 33.8 °F 30.3 in NNE 3.4 mph 5.8 mph 68 % 0 in
22:34 44.2 °F 33.8 °F 30.3 in NW 3.1 mph 5.8 mph 69 % 0 in
22:39 44.6 °F 35.6 °F 30.3 in NNE 4.3 mph 5.8 mph 69 % 0 in
22:44 44.8 °F 35.6 °F 30.3 in Calm   5.8 mph 71 % 0 in
22:49 44.6 °F 35.6 °F 30.3 in Calm   4.3 mph 71 % 0 in
22:54 44.4 °F 37.4 °F 30.3 in NNE 3.6 mph 3.6 mph 72 % 0 in
22:59 44.2 °F 35.6 °F 30.3 in Calm   3.8 mph 72 % 0 in
23:04 44.4 °F 37.4 °F 30.3 in North 3.4 mph 3.8 mph 73 % 0 in
23:09 44.6 °F 37.4 °F 30.3 in Calm   3.8 mph 73 % 0 in
23:14 44.6 °F 37.4 °F 30.3 in NE 2.7 mph 3.8 mph 73 % 0 in
23:19 44.4 °F 37.4 °F 30.3 in NE 2.5 mph 3.8 mph 74 % 0 in
23:24 44.2 °F 37.4 °F 30.3 in Calm   2.9 mph 74 % 0 in
23:29 43.9 °F 37.4 °F 30.3 in Calm   2.9 mph 74 % 0 in
23:34 43.7 °F 37.4 °F 30.3 in NE 2.2 mph 2.9 mph 74 % 0 in
23:39 43.3 °F 35.6 °F 30.3 in NNE 2.7 mph 3.6 mph 74 % 0 in
23:44 43.3 °F 35.6 °F 30.3 in North 2 mph 3.6 mph 74 % 0 in
23:49 43.2 °F 35.6 °F 30.3 in NNW 2.9 mph 3.6 mph 74 % 0 in
23:54 43 °F 35.6 °F 30.3 in Calm   3.6 mph 75 % 0 in
23:59 42.6 °F 35.6 °F 30.3 in Calm   2 mph 75 % 0 in
Le Gheer Warneton
Courtoisie de Weather Underground - 2.5 mb

Mise a jour : 18/12/2017 04:13:12
Généré par Cumulus 1.9.4 (1099)